Chattanooga, TN

7:59 PM EDT on August 22, 2017 (GMT -0400)
Lovell

Weather History for KCHA - July, 2013

Change the Weather History Date:

Saturday, July 6, 2013

  Actual Average Record
Temperature  
Mean Temperature 72 °F 80 °F  
Max Temperature 73 °F 90 °F 100 °F (2012)
Min Temperature 70 °F 69 °F 52 °F (1972)
Cooling Degree Days 7 15  
Month to date cooling degree days 52 86  
Year to date cooling degree days 627 627  
Since 1 June cooling degree days 451 431  
Growing Degree Days 21 (Base 50)    
Moisture  
Dew Point 69 °F    
Average Humidity 95    
Maximum Humidity 100    
Minimum Humidity 90    
Precipitation  
Precipitation 2.10 in 0.15 in 2.85 in (1967)
Month to date precipitation 3.99 0.93  
Year to date precipitation 43.13 27.80  
Snow  
Snow 0.00 in - - ()
Month to date snowfall 0.0  
Since 1 June snowfall 0.0  
Snow Depth 0.00 in    
Sea Level Pressure  
Sea Level Pressure 30.13 in    
Wind  
Wind Speed 2 mph (East)    
Max Wind Speed 9 mph    
Max Gust Speed 14 mph    
Visibility 4 miles    
Events Fog , Rain    
T = Trace of Precipitation, MM = Missing Value Source: NWS Daily Summary

Daily Weather History Graph

Daily Weather History Graph

Search for Another Location

Airport or City:

Trip Planner

Search our weather history database for the weather conditions in past years. The results will help you decide how hot, cold, wet, or windy it might be!

Date:

Astronomy

Jul. 06, 2013 Rise Set
Actual Time 6:32 AM EDT 8:58 PM EDT
Civil Twilight 6:03 AM EDT 9:27 PM EDT
Nautical Twilight 5:27 AM EDT 10:03 PM EDT
Astronomical Twilight 4:47 AM EDT 10:43 PM EDT
Moon 5:16 AM EDT (7/6) 7:41 PM EDT (7/6)
Length of Visible Light 15h 23m
Length of Day
14h 25m
Waning Crescent, 2% of the Moon is Illuminated
Jul 6
Waning Crescent
Jul 8
New
Jul 15
First Quarter
Jul 22
Full
Jul 29
Last Quarter

Hourly Weather History & Observations

Time (EDT) Temp. Dew Point Humidity Pressure Visibility Wind Dir Wind Speed Gust Speed Precip Events Conditions
12:19 AM 71.6 °F 69.8 °F 94% 30.15 in 10.0 mi Calm Calm - N/A   Mostly Cloudy
12:53 AM 72.0 °F 69.1 °F 91% 30.14 in 10.0 mi Calm Calm - N/A   Overcast
1:53 AM 72.0 °F 69.1 °F 91% 30.13 in 10.0 mi SE 3.5 mph - N/A   Overcast
2:53 AM 72.0 °F 69.1 °F 91% 30.12 in 10.0 mi Calm Calm - N/A   Overcast
3:53 AM 72.0 °F 69.1 °F 91% 30.11 in 10.0 mi Calm Calm - 0.00 in   Overcast
4:01 AM 71.6 °F 69.8 °F 94% 30.13 in 10.0 mi Calm Calm - N/A   Overcast
4:30 AM 71.6 °F 69.8 °F 94% 30.13 in 10.0 mi Calm Calm - N/A   Overcast
4:45 AM 71.6 °F 69.8 °F 94% 30.13 in 10.0 mi Calm Calm - N/A   Overcast
4:53 AM 72.0 °F 69.1 °F 91% 30.11 in 10.0 mi Calm Calm - N/A   Overcast
5:53 AM 71.1 °F 69.1 °F 93% 30.12 in 4.0 mi SSE 3.5 mph - 0.05 in Rain Light Rain
6:13 AM 71.6 °F 69.8 °F 94% 30.14 in 4.0 mi South 4.6 mph - 0.00 in Rain Light Rain
6:53 AM 71.1 °F 69.1 °F 93% 30.12 in 3.0 mi SSE 3.5 mph - 0.00 in Fog Patches of Fog
7:08 AM 71.6 °F 69.8 °F 94% 30.14 in 4.0 mi Calm Calm - N/A Fog Patches of Fog
7:53 AM 72.0 °F 69.1 °F 91% 30.13 in 5.0 mi Calm Calm - 0.00 in Fog Patches of Fog
8:16 AM 71.6 °F 69.8 °F 94% 30.15 in 4.0 mi Calm Calm - 0.00 in Fog , Rain Light Rain
8:40 AM 71.6 °F 69.8 °F 94% 30.15 in 2.5 mi Calm Calm - 0.02 in Fog , Rain Light Rain
8:53 AM 72.0 °F 70.0 °F 93% 30.14 in 2.5 mi Calm Calm - 0.02 in Fog , Rain Light Rain
9:53 AM 72.0 °F 70.0 °F 93% 30.14 in 2.0 mi Calm Calm - 0.02 in Fog , Rain Light Rain
10:34 AM 71.6 °F 69.8 °F 94% 30.15 in 1.5 mi South 4.6 mph - 0.08 in Fog , Rain Rain
10:44 AM 71.6 °F 69.8 °F 94% 30.15 in 0.8 mi South 3.5 mph - 0.18 in Fog , Rain Rain
10:53 AM 72.0 °F 70.0 °F 93% 30.13 in 1.5 mi Calm Calm - 0.35 in Fog , Rain Rain
11:19 AM 73.4 °F 71.6 °F 94% 30.15 in 2.0 mi South 4.6 mph - 0.18 in Fog , Rain Light Rain
11:53 AM 73.0 °F 71.1 °F 93% 30.14 in 1.5 mi SW 8.1 mph - 0.26 in Fog , Rain Light Rain
12:29 PM 69.8 °F 68.0 °F 94% 30.17 in 1.0 mi Calm Calm - 0.15 in Fog , Rain Rain
12:53 PM 70.0 °F 68.0 °F 93% 30.14 in 1.0 mi West 3.5 mph - 0.27 in Fog , Rain Rain
1:00 PM 69.8 °F 68.0 °F 94% 30.16 in 1.0 mi Calm Calm - 0.06 in Fog , Rain Heavy Rain
1:19 PM 69.8 °F 69.8 °F 100% 30.16 in 6.0 mi West 3.5 mph - 0.16 in Rain Rain
1:44 PM 69.8 °F 68.0 °F 94% 30.16 in 2.0 mi Calm Calm - 0.28 in Rain Rain
1:53 PM 70.0 °F 68.0 °F 93% 30.14 in 2.0 mi NNW 3.5 mph - 0.32 in Rain Rain
2:19 PM 71.6 °F 68.0 °F 88% 30.16 in 3.0 mi Calm Calm - 0.08 in Rain Rain
2:53 PM 72.0 °F 69.1 °F 91% 30.13 in 1.8 mi WSW 3.5 mph - 0.13 in Rain Rain
3:53 PM 72.0 °F 69.1 °F 91% 30.12 in 1.8 mi WNW 3.5 mph - 0.05 in Rain Rain
4:00 PM 71.6 °F 69.8 °F 94% 30.13 in 3.0 mi NW 3.5 mph - 0.00 in   Overcast
4:34 PM 71.6 °F 69.8 °F 94% 30.13 in 9.0 mi Calm Calm - 0.04 in Rain Light Rain
4:53 PM 72.0 °F 68.0 °F 87% 30.12 in 9.0 mi Variable 3.5 mph - 0.04 in Rain Light Rain
5:40 PM 71.6 °F 69.8 °F 94% 30.14 in 1.8 mi Calm Calm - 0.10 in Rain Rain
5:53 PM 72.0 °F 69.1 °F 91% 30.12 in 1.8 mi Calm Calm - 0.13 in Rain Rain
6:41 PM 71.6 °F 69.8 °F 94% 30.13 in 1.0 mi East 4.6 mph - 0.14 in Rain Rain
6:53 PM 71.1 °F 69.1 °F 93% 30.11 in 1.0 mi East 4.6 mph - 0.15 in Rain Light Rain
7:11 PM 71.6 °F 69.8 °F 94% 30.13 in 1.5 mi East 5.8 mph - 0.01 in Rain Light Rain
7:53 PM 71.1 °F 69.1 °F 93% 30.12 in 1.5 mi NNE 3.5 mph - 0.09 in Rain Rain
8:06 PM 69.8 °F 69.8 °F 100% 30.13 in 1.0 mi North 5.8 mph - 0.06 in Rain Heavy Rain
8:41 PM 69.8 °F 69.8 °F 100% 30.12 in 1.5 mi NE 4.6 mph - 0.14 in Rain Light Rain
8:53 PM 70.0 °F 69.1 °F 97% 30.10 in 1.5 mi North 3.5 mph - 0.15 in Rain Light Rain
9:53 PM 70.0 °F 69.1 °F 97% 30.11 in 1.5 mi East 3.5 mph - 0.04 in Rain Light Rain
10:42 PM 69.8 °F 68.0 °F 94% 30.13 in 1.5 mi ENE 4.6 mph - 0.03 in   Mostly Cloudy
10:53 PM 70.0 °F 68.0 °F 93% 30.12 in 1.5 mi NE 4.6 mph - 0.03 in   Mostly Cloudy
11:53 PM 70.0 °F 68.0 °F 93% 30.12 in 1.5 mi ENE 3.5 mph - N/A   Overcast